Regional Weather Roundup
Issued by NWS Sioux Falls, SD

Home | Current Version | Previous Version | Text Only | Print | Product List | Glossary Off
Versions: 1 2 3 4 5 6 7 8 9 10 11 12 13 14 15 16 17 18 19 20 21 22 23 24 25 26 27 28 29 30 31 32 33 34 35 36 37 38 39 40 41 42 43 44 45 46 47 48 49 50

000
ASUS43 KFSD 271110
RWRFSD

WEATHER ROUNDUP FOR SE SOUTH DAKOTA/SW MINNESOTA/NW IOWA
NATIONAL WEATHER SERVICE SIOUX FALLS SD
600 AM CDT SAT MAY 27 2017

NOTE: "FAIR" INDICATES FEW OR NO CLOUDS BELOW 12,000 FEET WITH NO
SIGNIFICANT WEATHER AND OR OBSTRUCTIONS TO VISIBILITY.


SDZ038>040-050-052>070-271200-
SOUTHEAST SOUTH DAKOTA

CITY           SKY/WX    TMP DP  RH WIND       PRES   REMARKS
BROOKINGS      CLOUDY    54  49  83 CALM      29.91R
CHAMBERLAIN    CLOUDY    58  50  76 W3        29.93R
HURON          LGT RAIN  55  49  80 NW6       29.92R
MADISON        CLOUDY    54  54 100 S3        29.90F
MITCHELL       CLOUDY    58  47  66 W5        29.91R
SIOUX FALLS    CLOUDY    53  49  86 W5        29.91R
WINNER         CLOUDY    56  50  80 W8        29.96R
YANKTON        CLOUDY    55  51  86 NW8       29.93S
$$

MNZ071-072-080-081-089-090-097-098-271200-
SOUTHWEST MINNESOTA

CITY           SKY/WX    TMP DP  RH WIND       PRES   REMARKS
FAIRMONT       CLEAR     51  45  79 CALM      29.90S
JACKSON        CLEAR     48  45  87 CALM      29.91R
LUVERNE        CLOUDY    48  43  81 CALM      29.91R
MARSHALL       CLOUDY    55  48  77 CALM      29.90R
MONTEVIDEO     PTCLDY    52  45  76 CALM      29.88S
PIPESTONE      CLOUDY    55  45  67 CALM      29.90S
REDWOOD FALLS  CLOUDY    53  47  79 CALM      29.88S
TRACY          MOCLDY    56  49  79 SW5       29.89F
WINDOM         CLEAR     48  45  87 CALM      29.90S
WORTHINGTON    PTCLDY    50  44  80 CALM      29.91S
$$

IAZ001>003-012>014-020>022-031-032-NEZ013-014-SDZ071-271200-
NORTHWEST IOWA

CITY           SKY/WX    TMP DP  RH WIND       PRES   REMARKS
CHEROKEE       CLOUDY    49  49  99 CALM      29.90R
DENISON        MOCLDY    54  46  76 CALM      29.90S
ESTHERVILLE    CLOUDY    48  46  93 NW3       29.89S
LE MARS        CLOUDY    55  48  76 CALM      29.91R
ORANGE CITY    CLOUDY    59  45  58 NE6       29.91R
SHELDON        CLOUDY    54  45  71 CALM      29.89R
SIOUX CITY     CLOUDY    54  50  86 NW6       29.89R
SPENCER        MOCLDY    50  46  86 CALM      29.90R
STORM LAKE     MOCLDY    57  45  62 NE7       29.90S
$$

ABBREVIATIONS USED IN REMARKS
   TC - TEMPERATURE IN CELSIUS
  WCI - WIND CHILL INDEX
   HX - HEAT INDEX
  VSB - VISIBILITY





USA.gov is the U.S. government's official web portal to all federal, state and local government web resources and services.